Time_in_sec,gx,gy,gz
1312467668.42308211,-0.00537055,-0.00673048,-0.99996293
1312467668.47246981,-0.00546363,-0.00665649,-0.99996292
1312467668.52341771,-0.00609722,-0.00656906,-0.99995983
1312467668.57112861,-0.00597386,-0.00655606,-0.99996066
1312467668.62016678,-0.00616022,-0.00674443,-0.99995828
1312467668.67108202,-0.00604873,-0.00684851,-0.99995825
1312467668.72011423,-0.00616579,-0.00691237,-0.99995710
1312467668.77113271,-0.00613305,-0.00644345,-0.99996043
1312467668.82422185,-0.00610839,-0.00650577,-0.99996018
1312467668.87218571,-0.00606873,-0.00634556,-0.99996145
1312467668.92422247,-0.00603488,-0.00644106,-0.99996105
1312467668.97119164,-0.00599652,-0.00630419,-0.99996215
1312467669.02463579,-0.00613454,-0.00659326,-0.99995945
1312467669.07113409,-0.00610208,-0.00672388,-0.99995878
1312467669.12329626,-0.00604753,-0.00647554,-0.99996075
1312467669.17108917,-0.00572930,-0.00641879,-0.99996299
1312467669.22345424,-0.00576248,-0.00625052,-0.99996386
1312467669.27290940,-0.00584139,-0.00681892,-0.99995969
1312467669.32309699,-0.00600890,-0.00651608,-0.99996072
1312467669.37120581,-0.00610585,-0.00658048,-0.99995971
1312467669.42355275,-0.00597557,-0.00646948,-0.99996122
1312467669.47128654,-0.00584607,-0.00633839,-0.99996282
1312467669.52461314,-0.00596657,-0.00625421,-0.99996264
1312467669.57220721,-0.00605403,-0.00620933,-0.99996240
1312467669.62419963,-0.00616219,-0.00612348,-0.99996226
1312467669.67242599,-0.00609121,-0.00637464,-0.99996113
1312467669.72327590,-0.00631556,-0.00600917,-0.99996200
1312467669.77119184,-0.00600643,-0.00550061,-0.99996683
1312467669.82329345,-0.00618241,-0.00535204,-0.99996657
1312467669.87119341,-0.00640712,-0.00559844,-0.99996380
1312467669.92311907,-0.00645184,-0.00551605,-0.99996397
1312467669.97121358,-0.00637786,-0.00537115,-0.99996524
1312467670.02321386,-0.00610561,-0.00487456,-0.99996948
1312467670.07206106,-0.00624604,-0.00471127,-0.99996939
1312467670.12311482,-0.00613382,-0.00467350,-0.99997027
1312467670.16423154,-0.00606871,-0.00463210,-0.99997086
1312467670.22358847,-0.00620763,-0.00440535,-0.99997103
1312467670.27202511,-0.00571084,-0.00410529,-0.99997527
1312467670.32414365,-0.00577006,-0.00400313,-0.99997534
1312467670.37120247,-0.00582961,-0.00407235,-0.99997472
1312467670.42423177,-0.00563322,-0.00415581,-0.99997550
1312467670.47108412,-0.00580380,-0.00410871,-0.99997472
1312467670.52603054,-0.00553490,-0.00364471,-0.99997804
1312467670.57129693,-0.00568084,-0.00363073,-0.99997727
1312467670.62080121,-0.00561105,-0.00392504,-0.99997655
1312467670.67213821,-0.00567433,-0.00379282,-0.99997671
1312467670.72424245,-0.00592687,-0.00398035,-0.99997451
1312467670.77111363,-0.00489956,-0.00433132,-0.99997862
1312467670.82310724,-0.00478744,-0.00419370,-0.99997975
1312467670.87118602,-0.00484007,-0.00426739,-0.99997918
1312467670.92021871,-0.00460352,-0.00406602,-0.99998114
1312467670.97199297,-0.00463867,-0.00407817,-0.99998093
1312467671.02421045,-0.00399548,-0.00448482,-0.99998196
1312467671.07111526,-0.00381364,-0.00466009,-0.99998187
1312467671.12020588,-0.00395483,-0.00475756,-0.99998086
1312467671.16308117,-0.00404312,-0.00463102,-0.99998110
1312467671.22308064,-0.00397104,-0.00449367,-0.99998202
1312467671.27106595,-0.00392144,-0.00436098,-0.99998280
1312467671.32315898,-0.00383712,-0.00419033,-0.99998386
1312467671.37108135,-0.00389342,-0.00412684,-0.99998391
1312467671.42308855,-0.00397328,-0.00432422,-0.99998276
1312467671.47108841,-0.00401557,-0.00436638,-0.99998240
1312467671.52308035,-0.00383415,-0.00399770,-0.99998466
1312467671.57107997,-0.00399407,-0.00401432,-0.99998397
1312467671.62310672,-0.00411121,-0.00427288,-0.99998242
1312467671.67251658,-0.00438284,-0.00436570,-0.99998087
1312467671.72022271,-0.00433775,-0.00435600,-0.99998110
1312467671.77111125,-0.00455856,-0.00388025,-0.99998208
1312467671.82311249,-0.00442415,-0.00398325,-0.99998228
1312467671.87110996,-0.00447428,-0.00391620,-0.99998232
1312467671.92311931,-0.00451716,-0.00384587,-0.99998240
1312467671.97110486,-0.00492616,-0.00383247,-0.99998052
1312467672.02422762,-0.00427729,-0.00342973,-0.99998497
1312467672.07298613,-0.00423775,-0.00360898,-0.99998451
1312467672.12324333,-0.00428468,-0.00350488,-0.99998468
1312467672.16318583,-0.00437341,-0.00345930,-0.99998445
1312467672.22310996,-0.00411598,-0.00349463,-0.99998542
1312467672.27111959,-0.00424314,-0.00374296,-0.99998399
1312467672.32311082,-0.00433292,-0.00360617,-0.99998411
1312467672.37222385,-0.00415703,-0.00352382,-0.99998515
1312467672.42318368,-0.00422153,-0.00364149,-0.99998446
1312467672.47279239,-0.00435670,-0.00361546,-0.99998397
1312467672.52409983,-0.00415376,-0.00326357,-0.99998605
1312467672.57210493,-0.00424710,-0.00317603,-0.99998594
1312467672.62073040,-0.00438127,-0.00328359,-0.99998501
1312467672.67210746,-0.00436861,-0.00369229,-0.99998364
1312467672.72329330,-0.00456615,-0.00345089,-0.99998362
1312467672.77114868,-0.00461821,-0.00356834,-0.99998297
1312467672.82422519,-0.00470135,-0.00358086,-0.99998254
1312467672.87263608,-0.00446929,-0.00363578,-0.99998340
1312467672.92324400,-0.00409285,-0.00360673,-0.99998512
1312467672.97172952,-0.00410682,-0.00334482,-0.99998597
1312467673.02411199,-0.00417821,-0.00389271,-0.99998369
1312467673.07108212,-0.00432448,-0.00387325,-0.99998315
1312467673.12422299,-0.00417479,-0.00404385,-0.99998311
1312467673.16422677,-0.00434898,-0.00379507,-0.99998334
1312467673.22331262,-0.00440943,-0.00395356,-0.99998246
1312467673.27246499,-0.00424269,-0.00438279,-0.99998140
1312467673.32409930,-0.00417021,-0.00425116,-0.99998227
1312467673.37121177,-0.00392961,-0.00423558,-0.99998331
1312467673.42409396,-0.00394229,-0.00434334,-0.99998280
1312467673.47200561,-0.00388530,-0.00411596,-0.99998398
1312467673.52321601,-0.00310138,-0.00349879,-0.99998907
1312467673.57199502,-0.00296975,-0.00352762,-0.99998937
1312467673.62307072,-0.00299401,-0.00365619,-0.99998883
1312467673.67231941,-0.00290506,-0.00356941,-0.99998941
1312467673.72308874,-0.00298042,-0.00358870,-0.99998912
1312467673.77121139,-0.00282749,-0.00309144,-0.99999122
1312467673.82312894,-0.00300766,-0.00283916,-0.99999145
1312467673.87113810,-0.00304257,-0.00287951,-0.99999123
1312467673.92332458,-0.00291660,-0.00305513,-0.99999108
1312467673.97113252,-0.00309044,-0.00293170,-0.99999093
1312467674.02022171,-0.00215518,-0.00222250,-0.99999521
1312467674.07223558,-0.00220683,-0.00182783,-0.99999589
1312467674.12021565,-0.00231638,-0.00199247,-0.99999533
1312467674.16322184,-0.00247045,-0.00191925,-0.99999511
1312467674.22506237,-0.00255069,-0.00196707,-0.99999481
1312467674.27216482,-0.00241657,-0.00196518,-0.99999515
1312467674.32516599,-0.00246422,-0.00195380,-0.99999506
1312467674.37195849,-0.00262431,-0.00201181,-0.99999453
1312467674.42347383,-0.00241053,-0.00206091,-0.99999497
1312467674.47223353,-0.00258940,-0.00224592,-0.99999413
1312467674.52311754,-0.00230079,-0.00212776,-0.99999509
1312467674.57209611,-0.00257350,-0.00217632,-0.99999432
1312467674.62029505,-0.00267429,-0.00205253,-0.99999432
1312467674.67221642,-0.00268916,-0.00188946,-0.99999460
1312467674.72310519,-0.00255949,-0.00185828,-0.99999500
1312467674.77230024,-0.00284374,-0.00183503,-0.99999427
1312467674.82421350,-0.00268835,-0.00203944,-0.99999431
1312467674.87290454,-0.00283145,-0.00197301,-0.99999405
1312467674.92341375,-0.00293241,-0.00209847,-0.99999350
1312467674.97196102,-0.00305140,-0.00199057,-0.99999336
1312467675.02311492,-0.00246896,-0.00260213,-0.99999357
1312467675.07222533,-0.00258279,-0.00260548,-0.99999327
1312467675.12422085,-0.00239287,-0.00257063,-0.99999383
1312467675.16421938,-0.00235680,-0.00289055,-0.99999305
1312467675.22414732,-0.00230467,-0.00290888,-0.99999311
1312467675.27278566,-0.00221630,-0.00305160,-0.99999289
1312467675.32422614,-0.00220865,-0.00308639,-0.99999280
1312467675.37111044,-0.00240572,-0.00297595,-0.99999268
1312467675.42414260,-0.00246380,-0.00308750,-0.99999220
1312467675.47162724,-0.00263139,-0.00317532,-0.99999150
1312467675.52315140,-0.00245024,-0.00280537,-0.99999306
1312467675.57222438,-0.00269165,-0.00273520,-0.99999264
1312467675.62422442,-0.00268070,-0.00251669,-0.99999324
1312467675.67239428,-0.00259499,-0.00238023,-0.99999380
1312467675.72421670,-0.00234650,-0.00251212,-0.99999409
1312467675.77222562,-0.00232821,-0.00226807,-0.99999472
1312467675.82421517,-0.00213101,-0.00219042,-0.99999533
1312467675.87211156,-0.00223725,-0.00216227,-0.99999516
1312467675.92415118,-0.00231766,-0.00211539,-0.99999508
1312467675.97222519,-0.00252230,-0.00199519,-0.99999483
1312467676.02413368,-0.00206308,-0.00285823,-0.99999379
1312467676.07249618,-0.00197884,-0.00291030,-0.99999381
1312467676.12338829,-0.00228253,-0.00294624,-0.99999305
1312467676.17109108,-0.00219500,-0.00276856,-0.99999376
1312467676.22415352,-0.00227716,-0.00255990,-0.99999413
1312467676.27120972,-0.00304418,-0.00346123,-0.99998938
1312467676.32410574,-0.00308700,-0.00348483,-0.99998916
1312467676.37151456,-0.00294144,-0.00350626,-0.99998953
1312467676.42422557,-0.00270844,-0.00359776,-0.99998986
1312467676.47223139,-0.00274782,-0.00348770,-0.99999014
1312467676.52411699,-0.00260522,-0.00329839,-0.99999117
1312467676.57208180,-0.00249807,-0.00322889,-0.99999167
1312467676.62311316,-0.00250432,-0.00332197,-0.99999135
1312467676.67119503,-0.00273840,-0.00332420,-0.99999073
1312467676.72021985,-0.00243592,-0.00334956,-0.99999142
1312467676.77221727,-0.00253408,-0.00354888,-0.99999049
1312467676.82416391,-0.00259403,-0.00339975,-0.99999086
1312467676.87109017,-0.00273149,-0.00348923,-0.99999018
1312467676.92424488,-0.00286861,-0.00343636,-0.99998998
1312467676.97120380,-0.00310793,-0.00360127,-0.99998869
1312467677.02314043,-0.00316289,-0.00351527,-0.99998882
1312467677.07220912,-0.00312776,-0.00353971,-0.99998884
1312467677.12413096,-0.00304839,-0.00366889,-0.99998862
1312467677.17121577,-0.00336231,-0.00367736,-0.99998759
1312467677.22020364,-0.00335252,-0.00396773,-0.99998651
1312467677.27207875,-0.00311143,-0.00380780,-0.99998791
1312467677.32314420,-0.00300407,-0.00394524,-0.99998771
1312467677.37182283,-0.00317959,-0.00413808,-0.99998638
1312467677.42510772,-0.00333421,-0.00410912,-0.99998600
1312467677.47120094,-0.00320850,-0.00435232,-0.99998538
1312467677.52417922,-0.00451370,-0.00483309,-0.99997813
1312467677.57211089,-0.00471440,-0.00478486,-0.99997744
1312467677.62416148,-0.00491575,-0.00447072,-0.99997792
1312467677.67235923,-0.00466852,-0.00450015,-0.99997898
1312467677.72313499,-0.00453958,-0.00447683,-0.99997967
1312467677.77113247,-0.00483183,-0.00431512,-0.99997902
1312467677.82358074,-0.00495713,-0.00418284,-0.99997897
1312467677.87111378,-0.00510982,-0.00421433,-0.99997806
1312467677.92310166,-0.00494219,-0.00413798,-0.99997923
1312467677.97118759,-0.00497191,-0.00411066,-0.99997919
1312467678.02321768,-0.00425693,-0.00340027,-0.99998516
1312467678.07301998,-0.00409693,-0.00351299,-0.99998544
1312467678.12318826,-0.00418690,-0.00351720,-0.99998505
1312467678.17196679,-0.00413799,-0.00345955,-0.99998545
1312467678.22413993,-0.00420547,-0.00333037,-0.99998561
1312467678.27210665,-0.00412911,-0.00361457,-0.99998494
1312467678.32332134,-0.00423986,-0.00361798,-0.99998447
1312467678.37223005,-0.00426027,-0.00365240,-0.99998425
1312467678.42422318,-0.00421397,-0.00371195,-0.99998423
1312467678.47265339,-0.00431439,-0.00376604,-0.99998360
1312467678.52422047,-0.00432949,-0.00380638,-0.99998338
1312467678.57112122,-0.00436886,-0.00391872,-0.99998278
1312467678.62328029,-0.00456330,-0.00386901,-0.99998210
1312467678.67119837,-0.00445743,-0.00377116,-0.99998295
1312467678.72312307,-0.00430630,-0.00369540,-0.99998390
1312467678.77112055,-0.00353802,-0.00356906,-0.99998737
1312467678.82423043,-0.00366185,-0.00362513,-0.99998672
1312467678.87250733,-0.00369887,-0.00357702,-0.99998676
1312467678.92422509,-0.00388881,-0.00363635,-0.99998583
1312467678.97213554,-0.00406195,-0.00348378,-0.99998568
1312467679.02323222,-0.00361594,-0.00349784,-0.99998734
1312467679.07120228,-0.00345884,-0.00350103,-0.99998789
1312467679.12320662,-0.00353301,-0.00365366,-0.99998708
1312467679.16423225,-0.00351341,-0.00367724,-0.99998707
1312467679.22336698,-0.00336494,-0.00345674,-0.99998836
1312467679.27224731,-0.00429041,-0.00409740,-0.99998240
1312467679.32423091,-0.00446699,-0.00415220,-0.99998140
1312467679.37215352,-0.00433666,-0.00414147,-0.99998202
1312467679.42307472,-0.00443392,-0.00430275,-0.99998091
1312467679.47214293,-0.00432471,-0.00452573,-0.99998041
1312467679.52422214,-0.00498792,-0.00464948,-0.99997675
1312467679.57107401,-0.00496437,-0.00454461,-0.99997735
1312467679.62410712,-0.00519285,-0.00462920,-0.99997580
1312467679.67235923,-0.00520865,-0.00430491,-0.99997717
1312467679.71210527,-0.00522375,-0.00422750,-0.99997742
1312467679.77125072,-0.00615028,-0.00415743,-0.99997244
1312467679.82422400,-0.00602954,-0.00384922,-0.99997441
1312467679.87110972,-0.00624765,-0.00365302,-0.99997381
1312467679.92424130,-0.00616686,-0.00373917,-0.99997399
1312467679.97190714,-0.00600494,-0.00364091,-0.99997534
1312467680.02321219,-0.00620341,-0.00337753,-0.99997505
1312467680.07218838,-0.00621702,-0.00356974,-0.99997430
1312467680.12413478,-0.00614276,-0.00345486,-0.99997516
1312467680.16409492,-0.00615208,-0.00326872,-0.99997573
1312467680.22410059,-0.00607193,-0.00301526,-0.99997702
1312467680.27212882,-0.00587682,-0.00310812,-0.99997790
1312467680.32412601,-0.00601915,-0.00329686,-0.99997645
1312467680.37121940,-0.00614835,-0.00322127,-0.99997591
1312467680.42411685,-0.00593640,-0.00312965,-0.99997748
1312467680.47219133,-0.00598124,-0.00316144,-0.99997711
1312467680.52411222,-0.00594605,-0.00280688,-0.99997838
1312467680.57111526,-0.00614803,-0.00297911,-0.99997666
1312467680.62328768,-0.00622762,-0.00304015,-0.99997599
1312467680.67211151,-0.00631153,-0.00266032,-0.99997654
1312467680.72013211,-0.00622883,-0.00285558,-0.99997652
1312467680.77107882,-0.00621678,-0.00306645,-0.99997597
1312467680.82507110,-0.00646772,-0.00290892,-0.99997485
1312467680.87218404,-0.00665836,-0.00268451,-0.99997423
1312467680.92334104,-0.00665134,-0.00259937,-0.99997450
1312467680.97222209,-0.00676607,-0.00263278,-0.99997364
1312467681.02422643,-0.00663847,-0.00230028,-0.99997532
1312467681.07111454,-0.00665006,-0.00242360,-0.99997495
1312467681.12327981,-0.00657405,-0.00251447,-0.99997523
1312467681.16321802,-0.00661338,-0.00244625,-0.99997514
1312467681.22328711,-0.00682870,-0.00240483,-0.99997379
1312467681.27207255,-0.00678137,-0.00243218,-0.99997405
1312467681.32343459,-0.00677780,-0.00253193,-0.99997383
1312467681.37184739,-0.00691900,-0.00253369,-0.99997285
1312467681.42424583,-0.00695741,-0.00252149,-0.99997262
1312467681.47210097,-0.00689061,-0.00276222,-0.99997244
1312467681.52440381,-0.00698483,-0.00282324,-0.99997162
1312467681.57171273,-0.00711505,-0.00304559,-0.99997005
1312467681.62422276,-0.00692648,-0.00304500,-0.99997138
1312467681.67119575,-0.00703081,-0.00274164,-0.99997153
1312467681.72312784,-0.00668663,-0.00273037,-0.99997392
1312467681.77212119,-0.00686304,-0.00274723,-0.99997268
1312467681.82315350,-0.00675787,-0.00306254,-0.99997248
1312467681.87120461,-0.00686977,-0.00336195,-0.99997075
1312467681.92336559,-0.00679453,-0.00369507,-0.99997009
1312467681.97223020,-0.00678737,-0.00360296,-0.99997047
1312467682.02352881,-0.00684912,-0.00340044,-0.99997076
1312467682.07266593,-0.00683015,-0.00334925,-0.99997107
1312467682.12320113,-0.00683442,-0.00333801,-0.99997107
1312467682.17204356,-0.00690952,-0.00346809,-0.99997012
1312467682.22331929,-0.00696548,-0.00341109,-0.99996992
1312467682.27111173,-0.00691218,-0.00350832,-0.99996996
1312467682.32413816,-0.00707555,-0.00341877,-0.99996912
1312467682.37177515,-0.00692029,-0.00332489,-0.99997053
1312467682.42323565,-0.00699884,-0.00340862,-0.99996970
1312467682.47239661,-0.00702001,-0.00320614,-0.99997022
1312467682.52422953,-0.00703917,-0.00341706,-0.99996939
1312467682.57121491,-0.00703462,-0.00328117,-0.99996987
1312467682.62323093,-0.00707577,-0.00339683,-0.99996920
1312467682.67113495,-0.00693311,-0.00334138,-0.99997038
1312467682.72315502,-0.00677757,-0.00320435,-0.99997190
1312467682.77113938,-0.00670940,-0.00330164,-0.99997204
1312467682.82025743,-0.00690297,-0.00323868,-0.99997093
1312467682.87107372,-0.00684224,-0.00330885,-0.99997112
1312467682.92338204,-0.00701063,-0.00350961,-0.99996927
1312467682.97109890,-0.00681920,-0.00334101,-0.99997117
1312467683.02336502,-0.00579882,-0.00411297,-0.99997473
1312467683.07220101,-0.00562913,-0.00393667,-0.99997641
1312467683.12345290,-0.00568487,-0.00399933,-0.99997584
1312467683.17143321,-0.00553916,-0.00414482,-0.99997607
1312467683.22351575,-0.00549694,-0.00428962,-0.99997569
1312467683.27224350,-0.00517891,-0.00501527,-0.99997401
1312467683.32012630,-0.00538690,-0.00484128,-0.99997377
1312467683.37221599,-0.00525902,-0.00479110,-0.99997469
1312467683.42408347,-0.00537287,-0.00483202,-0.99997389
1312467683.47207832,-0.00556961,-0.00504727,-0.99997175
1312467683.52013063,-0.00498435,-0.00525139,-0.99997379
1312467683.57113481,-0.00501155,-0.00540962,-0.99997281
1312467683.62315226,-0.00493304,-0.00531799,-0.99997369
1312467683.67286110,-0.00474642,-0.00489696,-0.99997675
1312467683.72345853,-0.00473554,-0.00493927,-0.99997659
1312467683.77108192,-0.00502058,-0.00506369,-0.99997458
1312467683.82330775,-0.00490911,-0.00505501,-0.99997517
1312467683.87214065,-0.00497250,-0.00524677,-0.99997387
1312467683.92486811,-0.00517986,-0.00516775,-0.99997323
1312467683.97107935,-0.00531967,-0.00515856,-0.99997254
1312467684.02487206,-0.00497666,-0.00498308,-0.99997520
1312467684.07120562,-0.00510252,-0.00493660,-0.99997480
1312467684.12413406,-0.00516557,-0.00486679,-0.99997482
1312467684.16311097,-0.00529232,-0.00492242,-0.99997388
1312467684.22420907,-0.00522208,-0.00514088,-0.99997315
1312467684.27110577,-0.00501647,-0.00508045,-0.99997451
1312467684.32319140,-0.00528482,-0.00512323,-0.99997291
1312467684.37139010,-0.00527643,-0.00505312,-0.99997331
1312467684.42421913,-0.00527109,-0.00516326,-0.99997278
1312467684.47270727,-0.00537887,-0.00520815,-0.99997197
1312467684.52347374,-0.00553114,-0.00533847,-0.99997045
1312467684.57218075,-0.00572809,-0.00553870,-0.99996826
1312467684.62422585,-0.00583623,-0.00547471,-0.99996798
1312467684.67227221,-0.00593172,-0.00558842,-0.99996679
1312467684.72310781,-0.00565390,-0.00560852,-0.99996829
1312467684.77112365,-0.00607774,-0.00602950,-0.99996335
1312467684.82308364,-0.00599259,-0.00633008,-0.99996201
1312467684.87243795,-0.00597661,-0.00603896,-0.99996390
1312467684.92309809,-0.00583979,-0.00615815,-0.99996399
1312467684.97111297,-0.00579478,-0.00612064,-0.99996448
1312467685.02365804,-0.00607547,-0.00630821,-0.99996165
1312467685.07221603,-0.00626044,-0.00638206,-0.99996004
1312467685.12329340,-0.00645519,-0.00636392,-0.99995891
1312467685.16414428,-0.00645084,-0.00666418,-0.99995699
1312467685.22307396,-0.00650661,-0.00655047,-0.99995738
1312467685.27242517,-0.00724056,-0.00656769,-0.99995222
1312467685.32322884,-0.00742226,-0.00660548,-0.99995064
1312467685.37161207,-0.00759444,-0.00665663,-0.99994901
1312467685.42440510,-0.00745658,-0.00668956,-0.99994982
1312467685.47136021,-0.00755948,-0.00657651,-0.99994980
1312467685.52425194,-0.00791876,-0.00659477,-0.99994690
1312467685.57110405,-0.00810157,-0.00668441,-0.99994484
1312467685.62424445,-0.00829170,-0.00657692,-0.99994399
1312467685.67228818,-0.00830469,-0.00650416,-0.99994436
1312467685.72424126,-0.00841926,-0.00655426,-0.99994308
1312467685.77120042,-0.00867704,-0.00628846,-0.99994258
1312467685.82411218,-0.00868370,-0.00630112,-0.99994244
1312467685.87197471,-0.00871469,-0.00618553,-0.99994290
1312467685.92334676,-0.00888163,-0.00605339,-0.99994223
1312467685.97213292,-0.00892881,-0.00602170,-0.99994201
1312467686.02344966,-0.00813587,-0.00627808,-0.99994720
1312467686.07110763,-0.00823432,-0.00608969,-0.99994755
1312467686.12312460,-0.00831766,-0.00624690,-0.99994589
1312467686.16312313,-0.00839312,-0.00612611,-0.99994601
1312467686.22313213,-0.00840297,-0.00634343,-0.99994457
1312467686.27121782,-0.00766483,-0.00620167,-0.99995139
1312467686.32418299,-0.00773239,-0.00609228,-0.99995155
1312467686.37115550,-0.00754789,-0.00598069,-0.99995363
1312467686.42414546,-0.00736744,-0.00621522,-0.99995354
1312467686.47261310,-0.00722221,-0.00612764,-0.99995514
1312467686.52430224,-0.00692710,-0.00728739,-0.99994945
1312467686.57190132,-0.00673722,-0.00737040,-0.99995014
1312467686.62411046,-0.00652213,-0.00748656,-0.99995071
1312467686.67110777,-0.00659254,-0.00741817,-0.99995075
1312467686.72332644,-0.00688504,-0.00746347,-0.99994845
1312467686.77112937,-0.00727860,-0.00809048,-0.99994078
1312467686.82322240,-0.00750169,-0.00797701,-0.99994004
1312467686.87302089,-0.00770287,-0.00795565,-0.99993868
1312467686.92421460,-0.00735577,-0.00786906,-0.99994198
1312467686.97119308,-0.00725618,-0.00805157,-0.99994126
1312467687.02422643,-0.00752086,-0.00822292,-0.99993791
1312467687.07112432,-0.00774084,-0.00838466,-0.99993489
1312467687.12305331,-0.00766483,-0.00844928,-0.99993493
1312467687.16305709,-0.00766854,-0.00859872,-0.99993363
